Estación de Morza

Ultimos registro cada 15 minutos 52
Estación Fecha / Hora Temperatura Humedad Lluvia Velocidad Dirección Radiación Presion
52 Morza 04-05-2026 12:45 14,6 79 0 0 44 107 1015,4
51 Morza 04-05-2026 12:30 14,2 80 0 0 44 93 1015,5
50 Morza 04-05-2026 12:15 13,8 80 0 0 44 95 1015,7
49 Morza 04-05-2026 12:00 13,6 80 0 0 44 90 1015,5
48 Morza 04-05-2026 11:45 13,4 81 0 0 44 76 1015,4
47 Morza 04-05-2026 11:30 13,4 81 0 0,4 44 83 1015,5
46 Morza 04-05-2026 11:15 13,2 84 0 0 44 90 1015,7
45 Morza 04-05-2026 11:00 12,8 83 0 0 44 88 1015,5
44 Morza 04-05-2026 10:45 12,8 84 0 0,4 44 81 1015,5
43 Morza 04-05-2026 10:30 12,8 85 0 0,4 50 88 1015,5
42 Morza 04-05-2026 10:15 12,5 83 0 0 138 79 1015,6
41 Morza 04-05-2026 10:00 11,9 83 0 0 138 65 1015,5
40 Morza 04-05-2026 09:45 11,6 86 0 0 138 70 1015,3
39 Morza 04-05-2026 09:30 11,1 88 0 0 103 63 1015
38 Morza 04-05-2026 09:15 10,8 88 0 0 103 44 1014,9
37 Morza 04-05-2026 09:00 10,6 88 0 0 103 46 1014,8
36 Morza 04-05-2026 08:45 10,2 88 0 0 103 40 1014,7
35 Morza 04-05-2026 08:30 10,1 88 0 0 102 35 1014,9
34 Morza 04-05-2026 08:15 9,9 88 0 0 103 19 1014,9
33 Morza 04-05-2026 08:00 9,8 88 0 0 103 16 1014,7
32 Morza 04-05-2026 07:45 9,8 87 0 0 102 7 1014,6
31 Morza 04-05-2026 07:30 9,7 87 0 0 102 0 1014,5
30 Morza 04-05-2026 07:15 9,7 86 0 0 102 0 1014,5
29 Morza 04-05-2026 07:00 9,7 85 0 0 140 0 1014,6
28 Morza 04-05-2026 06:45 9,5 84 0 0 145 0 1014,5
27 Morza 04-05-2026 06:30 9,3 85 0 0,4 145 0 1014,4
26 Morza 04-05-2026 06:15 9,4 87 0 0 145 0 1014,1
25 Morza 04-05-2026 06:00 9,3 86 0 0 145 0 1014,1
24 Morza 04-05-2026 05:45 9,4 87 0 0 145 0 1014,1
23 Morza 04-05-2026 05:30 9,5 86 0 0 145 0 1014,1
22 Morza 04-05-2026 05:15 9,7 86 0 0 145 0 1013,9
21 Morza 04-05-2026 05:00 9,8 86 0 0 145 0 1013,9
20 Morza 04-05-2026 04:45 10 86 0 0 145 0 1014,2
19 Morza 04-05-2026 04:30 10,2 85 0 0 145 0 1014,2
18 Morza 04-05-2026 04:15 10,1 86 0 0,4 145 0 1014,2
17 Morza 04-05-2026 04:00 10,2 84 0 0,4 148 0 1014,2
16 Morza 04-05-2026 03:45 10,2 84 0 0 148 0 1014,3
15 Morza 04-05-2026 03:30 10,2 84 0 0 148 0 1014,4
14 Morza 04-05-2026 03:15 10,3 85 0 0 148 0 1014,6
13 Morza 04-05-2026 03:00 10,4 86 0 0 148 0 1014,6
12 Morza 04-05-2026 02:45 10,6 86 0 0 148 0 1014,9
11 Morza 04-05-2026 02:30 10,5 84 0 0 148 0 1015,1
10 Morza 04-05-2026 02:15 10,6 84 0 0 149 0 1015,3
9 Morza 04-05-2026 02:00 10,3 83 0 0 161 0 1015,2
8 Morza 04-05-2026 01:45 10,2 84 0 0,4 138 0 1015,2
7 Morza 04-05-2026 01:30 10,3 85 0 0 189 0 1015,2
6 Morza 04-05-2026 01:15 10,4 87 0 0 165 0 1015,1
5 Morza 04-05-2026 01:00 10,5 87 0 0 133 0 1015,2
4 Morza 04-05-2026 00:45 10,6 88 0 0 78 0 1015,6
3 Morza 04-05-2026 00:30 10,7 87 0 0 78 0 1015,8
2 Morza 04-05-2026 00:15 10,8 88 0 0 78 0 1016,2
1 Morza 04-05-2026 00:00 10,8 86 0 0 66 0 1016,5